SCP
0 0 0 0 -0 -0 -0 -0 0 0 0 0 0 0 -0 0 -0 -0 -0 -0 -0 -0 0 0 -0 -0 0 -0 0 0 0 0 -0 0 -0 -0 -0 -0 -0 -0 0 0 0
1 1 0 0 0 0 -0 -0 0 0 0 0 0 -0 0 -0 -0 0 -0 0 -0 -0 -0 0 0 -0 -0 -0 -0 -0 0 0 -0 -0 -0 -0 -0 -0 -0 -0 0 0 0
0 0 1 1 0 0 0 0 -0 0 0 0 0 0 0 -0 -0 0 0 0 0 0 0 0 0 0 -0 -0 -0 -0 -0 -0 -0 -0 -0 -0 -0 0 0 0 -0 0 0
0 0 0 0 0 0 1 1 0 0 0 0 0 0 0 0 0 -0 0 0 0 -0 0 -0 0 0 0 0 0 -0 -0 -0 -0 -0 -0 -0 0 0 0 0 0 0 0
0 0 0 0 0 0 0 1 0 0 0 0 0 0 0 0 0 -0 -0 0 0 0 0 -0 0 0 -0 0 0 0 0 0 -0 -0 0 0 0 -0 -0 -0 -0 -0 -0
0 0 0 0 0 0 0 1 1 0 0 0 0 0 0 0 0 0 -0 0 0 0 0 0 0 0 -0 0 0 0 0 0 0 0 -0 -0 -0 -0 0 -0 -0 -0 -0
0 0 0 0 0 0 0 0 0 0 1 1 0 0 0 0 0 0 -0 0 0 0 0 0 0 0 -0 0 0 0 0 0 0 0 0 0 0 0 -0 -0 -0 -0 -0
-0 -0 0 0 0 0 0 0 0 0 0 1 1 1 0 0 0 0 0 0 0 0 0 0 1 1 1 0 0 0 0 0 0 0 0 0 0 0 0 0 0 -0 0
0 0 0 0 0 0 0 0 0 0 0 0 0 0 0 0 0 0 0 0 0 0 0 0 1 1 1 1 1 0 0 1 1 0 0 0 0 0 0 0 0 0 0
0 0 0 0 0 0 0 0 0 0 0 0 0 0 0 0 0 0 0 0 0 0 0 0 0 0 0 1 0 0 0 0 1 1 1 0 0 0 0 0 0 0 0
0 0 0 0 0 0 0 0 0 0 0 0 0 0 0 0 0 0 0 0 0 0 1 1 1 0 0 0 0 0 0 0 0 0 1 1 1 1 1 0 0 0 0
0 0 0 0 0 0 0 0 0 0 0 0 0 0 0 0 0 0 0 0 0 0 0 0 0 0 0 0 0 0 0 0 0 0 0 1 1 1 1 1 1 0 0
0 0 0 0 0 0 0 0 0 0 0 0 0 0 0 0 0 0 0 0 0 0 0 0 0 0 0 -0 -0 0 0 0 0 0 0 0 1 1 1 1 1 0 0
0 0 0 0 0 0 0 0 0 0 0 0 0 0 0 0 0 0 0 0 0 0 0 0 0 0 0 -0 0 0 0 0 0 0 0 0 0 1 1 1 1 1 0
0 0 0 0 0 0 0 0 0 0 0 0 0 0 0 0 0 0 0 0 0 0 0 0 0 0 0 0 0 1 1 1 0 0 0 0 1 1 1 1 1 1 0
0 0 0 0 0 0 0 0 0 0 0 0 0 0 0 0 0 0 0 0 0 0 0 0 0 0 0 0 0 0 0 1 1 1 1 1 1 1 1 1 1 1 1
0 0 0 0 0 0 0 0 0 0 0 0 0 0 0 0 0 0 0 0 0 0 0 0 0 0 0 0 0 0 0 0 0 0 1 1 1 1 1 1 1 0 0
0 0 0 0 0 0 0 0 0 0 0 0 0 0 0 0 0 0 0 0 0 0 0 0 0 0 0 0 0 0 0 0 0 0 0 0 0 0 0 0 0 0 0
0 0 0 0 0 0 0 0 0 0 0 0 0 0 0 0 0 0 0 0 0 0 0 0 0 0 0 0 0 0 0 1 0 1 0 0 0 0 -0 0 -0 0 1
0 0 0 0 0 0 0 0 0 0 0 0 0 0 0 0 0 0 0 0 0 0 0 0 0 0 0 0 0 0 0 0 0 0 0 0 0 0 0 0 0 0 0
0 0 0 0 0 -0 -0 -0 -0 -0 -0 -0 0 0 0 0 0 0 0 0 0 0 0 0 0 0 0 0 0 0 0 0 0 0 0 0 0 1 0 0 0 0 0
0 0 0 -0 -0 -0 -0 -0 -0 -0 -0 -0 -0 0 0 0 0 0 0 0 0 0 0 0 0 0 0 0 0 0 0 0 0 -0 0 0 0 0 0 0 0 0 0
0 0 0 0 0 -0 -0 -0 -0 -0 -0 -0 -0 -0 0 0 0 0 0 0 0 0 0 0 0 0 0 0 0 0 0 -0 0 0 -0 0 0 0 0 0 0 0 0
0 0 0 0 0 0 0 -0 -0 -0 -0 -0 -0 0 0 0 0 0 0 0 0 0 0 0 0 0 0 -0 -0 -0 -0 -0 -0 -0 0 0 0 0 0 0 0 0 1
0 0 0 0 0 0 0 -0 -0 -0 -0 -0 0 0 0 0 0 0 0 0 0 0 0 0 0 0 0 -0 -0 -0 -0 -0 -0 0 0 0 0 0 0 0 0 0 0
0 0 0 0 0 0 0 0 -0 -0 -0 0 0 0 0 0 0 0 0 0 0 0 0 0 0 0 0 0 0 0 0 0 0 0 0 0 0 0 0 0 0 0 0
Wind_Speed_500mb
48 47 44 43 40 38 41 40 32 32 22 23 14 24 21 21 9 9 19 22 19 21 19 20 18 28 32 29 20 24 21 20 23 29 32 35 39 42 46 44 31 33 28
47 48 46 40 36 40 45 42 43 46 36 33 23 20 31 23 19 26 21 20 24 16 13 22 28 21 32 36 34 28 27 25 26 35 37 43 44 43 34 29 28 28 35
49 45 42 38 37 36 40 44 45 43 42 45 42 37 35 30 32 32 29 24 29 27 22 17 16 20 23 24 29 39 42 38 36 37 41 42 41 32 36 42 37 32 26
41 49 47 48 46 44 38 35 34 37 38 36 36 38 41 39 36 35 35 29 28 30 32 33 31 25 24 22 24 26 35 45 46 47 45 45 44 39 45 30 26 27 36
21 44 43 33 32 39 45 41 39 42 36 34 34 36 36 36 34 32 33 35 35 32 32 38 38 35 27 30 33 32 32 33 32 38 41 39 37 37 37 45 46 49 52
4 8 26 36 40 34 40 40 42 38 40 39 39 37 39 44 41 35 29 28 34 37 37 36 37 40 39 36 40 42 40 39 40 41 43 47 48 48 50 52 51 52 59
14 16 11 18 37 50 36 40 43 41 45 42 40 44 46 45 43 45 44 48 49 50 51 50 47 44 43 45 45 45 49 49 47 47 53 55 58 55 55 52 48 47 53
15 3 3 7 11 19 30 30 22 25 34 42 48 54 51 48 48 49 44 49 57 54 52 55 55 55 53 50 49 52 55 55 55 53 57 57 53 46 42 44 50 55 61
28 22 17 11 6 4 9 16 26 27 33 33 40 41 42 48 50 51 50 50 54 57 64 68 68 68 67 66 68 70 69 71 69 71 73 73 71 61 50 54 59 62 70
12 13 10 9 11 9 8 10 10 17 25 35 36 45 43 45 47 47 50 48 52 57 63 67 66 70 73 73 76 79 83 81 77 78 81 83 81 81 76 75 73 77 74
4 2 3 5 5 5 10 14 15 13 12 15 19 25 35 32 40 40 45 46 53 59 59 60 57 57 60 62 61 59 64 61 65 72 77 74 69 68 67 64 62 61 68
15 14 14 14 13 14 16 15 16 14 13 18 22 20 11 16 26 33 32 35 42 52 58 63 66 63 64 60 57 58 61 68 75 79 82 84 80 75 72 71 71 69 67
21 19 18 17 12 10 12 16 16 19 19 21 10 7 14 24 31 33 32 38 36 36 43 60 73 67 72 79 74 72 75 74 71 71 72 78 81 79 79 80 79 79 80
20 16 10 7 16 10 8 5 11 10 19 28 31 34 38 40 39 42 39 36 40 45 48 49 53 55 62 68 69 76 80 76 82 90 90 84 79 77 80 80 80 77 76
13 12 13 16 17 19 19 17 18 16 16 26 30 33 42 48 45 44 47 46 45 46 51 53 56 60 66 65 64 65 59 61 66 69 71 75 78 81 85 83 84 72 67
18 21 26 26 25 21 23 26 35 40 41 38 33 33 39 45 49 44 42 48 50 53 57 56 57 56 60 63 65 63 61 60 63 61 67 69 68 71 72 68 69 68 62
22 22 25 26 30 35 35 38 45 35 36 39 38 33 31 37 40 41 43 48 52 56 60 59 59 61 63 61 62 65 69 67 70 63 78 79 69 68 76 79 76 68 62
26 27 28 33 33 34 37 42 46 52 56 54 45 45 49 48 54 53 52 57 58 60 62 61 63 62 64 63 59 59 61 63 59 58 54 59 61 69 78 61 77 90 78
19 23 31 35 34 35 38 43 47 52 58 63 62 56 54 53 55 45 50 55 50 48 44 49 46 52 54 53 55 60 59 59 62 66 64 61 66 83 94 78 89 97 81
19 19 27 32 35 39 43 48 53 56 60 63 65 67 68 69 68 69 63 57 57 58 56 55 52 50 55 63 65 63 55 53 50 45 50 59 65 52 58 79 85 70 73
20 21 25 33 41 47 52 54 56 59 62 65 68 67 66 69 73 76 79 85 84 74 70 75 77 75 72 75 76 74 71 68 72 71 60 50 40 57 64 72 66 64 61
34 30 27 34 41 49 55 60 63 64 63 65 69 70 68 69 73 75 74 73 79 87 88 74 73 77 72 75 82 81 79 75 72 71 71 69 72 72 55 67 68 63 58
36 34 35 40 46 53 60 63 70 72 71 70 70 69 67 67 69 72 74 76 77 84 86 81 98 93 89 90 79 77 80 83 81 82 82 79 70 72 70 64 61 67 75
26 33 41 44 46 54 60 64 72 75 74 74 73 70 71 66 66 70 74 73 78 81 89 89 91 101 110 113 106 101 96 98 98 96 92 87 80 72 69 78 75 78 72
20 36 46 46 52 53 60 63 72 74 72 70 72 73 71 72 67 62 68 71 76 83 87 85 85 97 108 120 121 118 113 108 106 103 96 88 83 77 69 69 70 76 77
30 37 43 46 50 50 56 58 67 72 72 69 70 71 71 70 68 64 64 67 68 68 73 79 80 84 87 85 87 92 97 98 91 88 82 80 80 76 70 67 68 70 70
Wind_Direction_500mb
207 203 206 203 202 196 198 205 219 218 213 219 207 222 210 201 205 228 213 225 245 252 251 231 223 245 246 250 257 254 264 283 299 283 289 295 300 303 305 311 336 354 354
212 214 210 214 212 205 206 210 216 229 231 230 230 210 215 218 217 239 230 221 242 248 246 238 243 243 250 253 251 250 254 264 285 287 293 294 300 303 314 322 333 335 333
214 217 211 217 217 218 211 216 220 220 229 239 242 231 237 236 225 241 251 242 239 240 245 252 266 272 266 266 263 255 258 266 270 281 289 297 300 316 317 314 308 308 305
211 209 206 211 219 233 231 221 229 230 224 223 232 236 240 243 242 243 248 249 240 245 253 250 255 259 272 281 284 278 273 268 268 272 276 281 291 298 309 318 313 301 298
238 202 199 209 218 232 233 231 228 233 238 243 239 233 234 240 243 243 243 248 255 260 256 251 259 262 266 281 284 287 292 291 275 270 273 280 275 285 292 302 307 306 303
350 143 203 216 236 240 220 216 223 232 237 238 245 253 247 243 249 252 249 256 263 267 273 273 261 266 255 260 271 276 283 287 287 285 282 280 282 284 288 296 301 305 310
289 275 225 218 210 223 231 235 228 223 226 233 240 248 251 253 251 250 244 249 258 264 270 273 274 267 264 265 271 271 275 279 281 284 283 285 288 292 296 299 300 299 299
106 141 256 177 241 248 251 243 241 248 245 242 241 247 249 252 257 259 256 252 251 255 258 262 266 273 276 278 275 272 273 274 275 277 277 284 287 295 291 295 297 295 294
103 87 60 56 41 332 295 263 252 256 258 262 263 260 261 262 260 263 266 266 260 257 257 258 260 262 265 270 272 274 275 275 279 280 282 284 286 289 288 286 284 288 291
82 81 74 65 56 32 359 349 313 284 275 267 268 265 274 277 271 268 263 260 264 266 266 266 265 265 266 268 270 272 273 276 280 281 282 282 282 281 278 276 278 280 283
322 303 259 292 310 314 337 342 349 350 340 338 321 292 279 279 276 274 265 270 269 266 265 267 268 272 273 270 269 269 274 286 285 285 285 286 287 287 287 283 280 279 279
281 282 285 277 283 312 318 335 351 355 350 4 352 0 340 290 294 295 294 287 280 269 266 267 265 262 262 259 261 264 267 269 271 273 275 278 280 283 287 290 291 286 277
301 299 286 285 309 293 312 344 342 347 331 332 339 306 290 301 310 314 305 301 297 291 285 272 269 268 271 268 262 263 259 262 265 269 274 275 275 278 284 286 289 288 285
319 321 306 274 242 244 258 263 296 295 296 299 306 300 294 291 297 309 307 300 292 292 289 289 291 293 290 284 281 268 267 267 268 269 270 273 276 277 279 284 287 290 287
355 349 331 319 311 278 257 265 272 258 295 307 298 300 303 303 310 314 311 309 308 302 293 287 286 286 286 288 283 282 276 270 269 273 273 272 273 275 277 281 283 283 278
12 17 15 11 1 342 315 283 257 270 265 258 267 287 295 297 298 293 292 298 304 307 300 297 292 291 290 289 292 288 272 270 274 281 284 286 285 285 283 282 279 274 275
21 20 5 354 341 339 337 330 322 310 300 289 276 269 268 284 285 289 291 299 300 299 294 296 298 296 293 296 290 292 292 283 287 284 267 281 283 281 281 279 278 263 260
24 14 358 354 347 339 334 330 327 324 319 312 304 287 271 276 278 280 287 289 291 290 289 291 295 298 299 298 298 296 295 294 295 295 289 282 283 286 275 276 294 278 269
9 10 3 1 360 353 342 333 326 319 314 311 307 302 296 281 271 276 277 274 284 286 285 288 290 295 298 296 299 300 298 295 292 290 287 286 291 294 291 268 283 262 264
36 5 6 12 9 3 356 347 339 331 324 320 315 311 306 300 293 278 270 273 273 273 277 273 270 271 278 290 293 288 287 292 294 302 296 288 284 292 277 255 269 278 270
351 357 6 8 9 7 3 357 350 341 333 325 320 316 310 300 296 290 284 277 275 278 279 280 278 281 281 277 276 277 277 275 277 287 281 288 297 264 271 274 272 281 284
331 333 343 357 1 0 358 355 351 344 334 325 320 316 312 305 297 291 284 283 280 276 270 272 275 269 272 270 268 272 273 275 276 279 283 284 284 293 273 270 268 271 279
323 325 336 345 351 353 351 349 346 343 337 329 324 320 317 310 302 296 291 286 282 279 274 270 268 264 264 267 265 269 274 277 281 282 286 285 280 276 280 279 270 266 262
306 302 315 331 345 350 346 342 343 342 337 330 325 321 318 314 304 295 293 291 288 282 272 271 271 267 261 265 266 271 274 277 282 281 283 282 281 278 277 270 269 268 262
280 278 296 319 335 337 336 340 342 342 336 330 326 323 320 317 313 303 300 297 290 281 275 274 276 271 264 262 266 269 273 275 275 277 278 277 276 277 277 275 274 267 267
295 285 304 307 317 324 335 339 340 343 338 332 329 326 323 319 317 313 305 300 294 290 283 280 279 277 277 275 269 267 267 269 271 270 274 274 271 271 273 272 270 265 263
Wind_Speed_850mb
48 47 44 43 40 38 41 40 32 32 22 23 14 24 21 21 9 9 19 22 19 21 19 20 18 28 32 29 20 24 21 20 23 29 32 35 39 42 46 44 31 33 28
47 48 46 40 36 40 45 42 43 46 36 33 23 20 31 23 19 26 21 20 24 16 13 22 28 21 32 36 34 28 27 25 26 35 37 43 44 43 34 29 28 28 35
49 45 42 38 37 36 40 44 45 43 42 45 42 37 35 30 32 32 29 24 29 27 22 17 16 20 23 24 29 39 42 38 36 37 41 42 41 32 36 42 37 32 26
41 49 47 48 46 44 38 35 34 37 38 36 36 38 41 39 36 35 35 29 28 30 32 33 31 25 24 22 24 26 35 45 46 47 45 45 44 39 45 30 26 27 36
21 44 43 33 32 39 45 41 39 42 36 34 34 36 36 36 34 32 33 35 35 32 32 38 38 35 27 30 33 32 32 33 32 38 41 39 37 37 37 45 46 49 52
4 8 26 36 40 34 40 40 42 38 40 39 39 37 39 44 41 35 29 28 34 37 37 36 37 40 39 36 40 42 40 39 40 41 43 47 48 48 50 52 51 52 59
14 16 11 18 37 50 36 40 43 41 45 42 40 44 46 45 43 45 44 48 49 50 51 50 47 44 43 45 45 45 49 49 47 47 53 55 58 55 55 52 48 47 53
15 3 3 7 11 19 30 30 22 25 34 42 48 54 51 48 48 49 44 49 57 54 52 55 55 55 53 50 49 52 55 55 55 53 57 57 53 46 42 44 50 55 61
28 22 17 11 6 4 9 16 26 27 33 33 40 41 42 48 50 51 50 50 54 57 64 68 68 68 67 66 68 70 69 71 69 71 73 73 71 61 50 54 59 62 70
12 13 10 9 11 9 8 10 10 17 25 35 36 45 43 45 47 47 50 48 52 57 63 67 66 70 73 73 76 79 83 81 77 78 81 83 81 81 76 75 73 77 74
4 2 3 5 5 5 10 14 15 13 12 15 19 25 35 32 40 40 45 46 53 59 59 60 57 57 60 62 61 59 64 61 65 72 77 74 69 68 67 64 62 61 68
15 14 14 14 13 14 16 15 16 14 13 18 22 20 11 16 26 33 32 35 42 52 58 63 66 63 64 60 57 58 61 68 75 79 82 84 80 75 72 71 71 69 67
21 19 18 17 12 10 12 16 16 19 19 21 10 7 14 24 31 33 32 38 36 36 43 60 73 67 72 79 74 72 75 74 71 71 72 78 81 79 79 80 79 79 80
20 16 10 7 16 10 8 5 11 10 19 28 31 34 38 40 39 42 39 36 40 45 48 49 53 55 62 68 69 76 80 76 82 90 90 84 79 77 80 80 80 77 76
13 12 13 16 17 19 19 17 18 16 16 26 30 33 42 48 45 44 47 46 45 46 51 53 56 60 66 65 64 65 59 61 66 69 71 75 78 81 85 83 84 72 67
18 21 26 26 25 21 23 26 35 40 41 38 33 33 39 45 49 44 42 48 50 53 57 56 57 56 60 63 65 63 61 60 63 61 67 69 68 71 72 68 69 68 62
22 22 25 26 30 35 35 38 45 35 36 39 38 33 31 37 40 41 43 48 52 56 60 59 59 61 63 61 62 65 69 67 70 63 78 79 69 68 76 79 76 68 62
26 27 28 33 33 34 37 42 46 52 56 54 45 45 49 48 54 53 52 57 58 60 62 61 63 62 64 63 59 59 61 63 59 58 54 59 61 69 78 61 77 90 78
19 23 31 35 34 35 38 43 47 52 58 63 62 56 54 53 55 45 50 55 50 48 44 49 46 52 54 53 55 60 59 59 62 66 64 61 66 83 94 78 89 97 81
19 19 27 32 35 39 43 48 53 56 60 63 65 67 68 69 68 69 63 57 57 58 56 55 52 50 55 63 65 63 55 53 50 45 50 59 65 52 58 79 85 70 73
20 21 25 33 41 47 52 54 56 59 62 65 68 67 66 69 73 76 79 85 84 74 70 75 77 75 72 75 76 74 71 68 72 71 60 50 40 57 64 72 66 64 61
34 30 27 34 41 49 55 60 63 64 63 65 69 70 68 69 73 75 74 73 79 87 88 74 73 77 72 75 82 81 79 75 72 71 71 69 72 72 55 67 68 63 58
36 34 35 40 46 53 60 63 70 72 71 70 70 69 67 67 69 72 74 76 77 84 86 81 98 93 89 90 79 77 80 83 81 82 82 79 70 72 70 64 61 67 75
26 33 41 44 46 54 60 64 72 75 74 74 73 70 71 66 66 70 74 73 78 81 89 89 91 101 110 113 106 101 96 98 98 96 92 87 80 72 69 78 75 78 72
20 36 46 46 52 53 60 63 72 74 72 70 72 73 71 72 67 62 68 71 76 83 87 85 85 97 108 120 121 118 113 108 106 103 96 88 83 77 69 69 70 76 77
30 37 43 46 50 50 56 58 67 72 72 69 70 71 71 70 68 64 64 67 68 68 73 79 80 84 87 85 87 92 97 98 91 88 82 80 80 76 70 67 68 70 70
Wind_Direction_850mb
207 203 206 203 202 196 198 205 219 218 213 219 207 222 210 201 205 228 213 225 245 252 251 231 223 245 246 250 257 254 264 283 299 283 289 295 300 303 305 311 336 354 354
212 214 210 214 212 205 206 210 216 229 231 230 230 210 215 218 217 239 230 221 242 248 246 238 243 243 250 253 251 250 254 264 285 287 293 294 300 303 314 322 333 335 333
214 217 211 217 217 218 211 216 220 220 229 239 242 231 237 236 225 241 251 242 239 240 245 252 266 272 266 266 263 255 258 266 270 281 289 297 300 316 317 314 308 308 305
211 209 206 211 219 233 231 221 229 230 224 223 232 236 240 243 242 243 248 249 240 245 253 250 255 259 272 281 284 278 273 268 268 272 276 281 291 298 309 318 313 301 298
238 202 199 209 218 232 233 231 228 233 238 243 239 233 234 240 243 243 243 248 255 260 256 251 259 262 266 281 284 287 292 291 275 270 273 280 275 285 292 302 307 306 303
350 143 203 216 236 240 220 216 223 232 237 238 245 253 247 243 249 252 249 256 263 267 273 273 261 266 255 260 271 276 283 287 287 285 282 280 282 284 288 296 301 305 310
289 275 225 218 210 223 231 235 228 223 226 233 240 248 251 253 251 250 244 249 258 264 270 273 274 267 264 265 271 271 275 279 281 284 283 285 288 292 296 299 300 299 299
106 141 256 177 241 248 251 243 241 248 245 242 241 247 249 252 257 259 256 252 251 255 258 262 266 273 276 278 275 272 273 274 275 277 277 284 287 295 291 295 297 295 294
103 87 60 56 41 332 295 263 252 256 258 262 263 260 261 262 260 263 266 266 260 257 257 258 260 262 265 270 272 274 275 275 279 280 282 284 286 289 288 286 284 288 291
82 81 74 65 56 32 359 349 313 284 275 267 268 265 274 277 271 268 263 260 264 266 266 266 265 265 266 268 270 272 273 276 280 281 282 282 282 281 278 276 278 280 283
322 303 259 292 310 314 337 342 349 350 340 338 321 292 279 279 276 274 265 270 269 266 265 267 268 272 273 270 269 269 274 286 285 285 285 286 287 287 287 283 280 279 279
281 282 285 277 283 312 318 335 351 355 350 4 352 0 340 290 294 295 294 287 280 269 266 267 265 262 262 259 261 264 267 269 271 273 275 278 280 283 287 290 291 286 277
301 299 286 285 309 293 312 344 342 347 331 332 339 306 290 301 310 314 305 301 297 291 285 272 269 268 271 268 262 263 259 262 265 269 274 275 275 278 284 286 289 288 285
319 321 306 274 242 244 258 263 296 295 296 299 306 300 294 291 297 309 307 300 292 292 289 289 291 293 290 284 281 268 267 267 268 269 270 273 276 277 279 284 287 290 287
355 349 331 319 311 278 257 265 272 258 295 307 298 300 303 303 310 314 311 309 308 302 293 287 286 286 286 288 283 282 276 270 269 273 273 272 273 275 277 281 283 283 278
12 17 15 11 1 342 315 283 257 270 265 258 267 287 295 297 298 293 292 298 304 307 300 297 292 291 290 289 292 288 272 270 274 281 284 286 285 285 283 282 279 274 275
21 20 5 354 341 339 337 330 322 310 300 289 276 269 268 284 285 289 291 299 300 299 294 296 298 296 293 296 290 292 292 283 287 284 267 281 283 281 281 279 278 263 260
24 14 358 354 347 339 334 330 327 324 319 312 304 287 271 276 278 280 287 289 291 290 289 291 295 298 299 298 298 296 295 294 295 295 289 282 283 286 275 276 294 278 269
9 10 3 1 360 353 342 333 326 319 314 311 307 302 296 281 271 276 277 274 284 286 285 288 290 295 298 296 299 300 298 295 292 290 287 286 291 294 291 268 283 262 264
36 5 6 12 9 3 356 347 339 331 324 320 315 311 306 300 293 278 270 273 273 273 277 273 270 271 278 290 293 288 287 292 294 302 296 288 284 292 277 255 269 278 270
351 357 6 8 9 7 3 357 350 341 333 325 320 316 310 300 296 290 284 277 275 278 279 280 278 281 281 277 276 277 277 275 277 287 281 288 297 264 271 274 272 281 284
331 333 343 357 1 0 358 355 351 344 334 325 320 316 312 305 297 291 284 283 280 276 270 272 275 269 272 270 268 272 273 275 276 279 283 284 284 293 273 270 268 271 279
323 325 336 345 351 353 351 349 346 343 337 329 324 320 317 310 302 296 291 286 282 279 274 270 268 264 264 267 265 269 274 277 281 282 286 285 280 276 280 279 270 266 262
306 302 315 331 345 350 346 342 343 342 337 330 325 321 318 314 304 295 293 291 288 282 272 271 271 267 261 265 266 271 274 277 282 281 283 282 281 278 277 270 269 268 262
280 278 296 319 335 337 336 340 342 342 336 330 326 323 320 317 313 303 300 297 290 281 275 274 276 271 264 262 266 269 273 275 275 277 278 277 276 277 277 275 274 267 267
295 285 304 307 317 324 335 339 340 343 338 332 329 326 323 319 317 313 305 300 294 290 283 280 279 277 277 275 269 267 267 269 271 270 274 274 271 271 273 272 270 265 263